Kahului, HI

4:41 PM HST on April 19, 2018 (GMT -1000)
Kahului

Weather History for PHOG - January, 2011

Change the Weather History Date:

Monday, January 17, 2011

  Actual Average Record
Temperature  
Mean Temperature 73 °F 72 °F  
Max Temperature 79 °F 81 °F 88 °F (1953)
Min Temperature 66 °F 63 °F 53 °F (1969)
Degree Days  
Heating Degree Days 0 0  
Month to date heating degree days 0 0  
Since 1 July heating degree days 0 0  
Cooling Degree Days 8 7  
Month to date cooling degree days 109 119  
Year to date cooling degree days 109 119  
Growing Degree Days 21 (Base 50)    
Moisture  
Dew Point 62 °F    
Average Humidity 71    
Maximum Humidity 84    
Minimum Humidity 58    
Precipitation  
Precipitation 0.00 in 0.09 in 2.04 in (1959)
Month to date precipitation 4.21 1.64  
Year to date precipitation 4.21 1.64  
Snow  
Snow 0.00 in - - ()
Month to date snowfall 0.0  
Since 1 July snowfall 0.0  
Snow Depth 0.00 in    
Sea Level Pressure  
Sea Level Pressure 29.93 in    
Wind  
Wind Speed 7 mph (NE)    
Max Wind Speed 16 mph    
Max Gust Speed 20 mph    
Visibility 10 miles    
Events      
T = Trace of Precipitation, MM = Missing Value Source: NWS Daily Summary

Daily Weather History Graph

Daily Weather History Graph

Search for Another Location

Airport or City:

Astronomy

Jan. 17, 2011 Rise Set
Actual Time 7:05 AM HST 6:06 PM HST
Civil Twilight 6:41 AM HST 6:30 PM HST
Nautical Twilight 6:14 AM HST 6:57 PM HST
Astronomical Twilight 5:47 AM HST 7:24 PM HST
Moon 4:17 PM HST (1/17) 5:06 AM HST (1/17)
Length of Visible Light 11h 48m
Length of Day
11h 01m
Waxing Gibbous, 95% of the Moon is Illuminated
Jan 17
Waxing Gibbous
Jan 19
Full
Jan 26
Last Quarter
Feb 2
New
Feb 10
First Quarter

Hourly Weather History & Observations

Time (HST) Temp. Dew Point Humidity Pressure Visibility Wind Dir Wind Speed Gust Speed Precip Events Conditions
12:54 AM 69.1 °F 60.1 °F 73% 29.93 in 10.0 mi West 8.1 mph - N/A   Clear
1:54 AM 68.0 °F 61.0 °F 78% 29.88 in 10.0 mi SE 5.8 mph - N/A   Clear
2:54 AM 72.0 °F 63.0 °F 73% 29.91 in 10.0 mi NNE 13.8 mph - N/A   Clear
3:54 AM 70.0 °F 63.0 °F 78% 29.92 in 10.0 mi ENE 8.1 mph - N/A   Clear
4:54 AM 69.1 °F 64.0 °F 84% 29.93 in 10.0 mi East 8.1 mph - N/A   Partly Cloudy
5:54 AM 68.0 °F 63.0 °F 84% 29.92 in 10.0 mi East 6.9 mph - N/A   Partly Cloudy
6:54 AM 68.0 °F 62.1 °F 81% 29.94 in 10.0 mi Calm Calm - N/A   Scattered Clouds
7:54 AM 70.0 °F 63.0 °F 78% 29.96 in 10.0 mi East 3.5 mph - N/A   Scattered Clouds
8:54 AM 75.0 °F 63.0 °F 66% 29.97 in 10.0 mi ENE 4.6 mph - N/A   Scattered Clouds
9:54 AM 75.9 °F 63.0 °F 64% 29.98 in 10.0 mi North 6.9 mph - N/A   Partly Cloudy
10:54 AM 77.0 °F 63.0 °F 62% 29.96 in 10.0 mi Variable 3.5 mph - N/A   Partly Cloudy
11:54 AM 78.1 °F 63.0 °F 60% 29.94 in 10.0 mi NNW 9.2 mph - N/A   Partly Cloudy
12:54 PM 79.0 °F 62.1 °F 56% 29.92 in 10.0 mi North 10.4 mph - N/A   Partly Cloudy
1:54 PM 79.0 °F 63.0 °F 58% 29.90 in 10.0 mi North 11.5 mph - N/A   Scattered Clouds
2:54 PM 77.0 °F 62.1 °F 60% 29.89 in 10.0 mi North 9.2 mph - N/A   Partly Cloudy
3:54 PM 77.0 °F 62.1 °F 60% 29.89 in 10.0 mi North 6.9 mph - N/A   Partly Cloudy
4:54 PM 75.0 °F 61.0 °F 62% 29.90 in 10.0 mi North 8.1 mph - N/A   Clear
5:54 PM 73.0 °F 61.0 °F 66% 29.92 in 10.0 mi North 4.6 mph - N/A   Partly Cloudy
6:54 PM 71.1 °F 61.0 °F 70% 29.93 in 10.0 mi ESE 5.8 mph - N/A   Clear
7:54 PM 66.9 °F 61.0 °F 81% 29.94 in 10.0 mi South 3.5 mph - N/A   Clear
8:54 PM 64.9 °F 61.0 °F 87% 29.96 in 10.0 mi South 3.5 mph - N/A   Scattered Clouds
9:54 PM 63.0 °F 59.0 °F 87% 29.96 in 10.0 mi Calm Calm - N/A   Clear
10:54 PM 64.9 °F 61.0 °F 87% 29.98 in 10.0 mi South 4.6 mph - N/A   Mostly Cloudy
11:54 PM 64.0 °F 60.1 °F 87% 29.96 in 10.0 mi Calm Calm - N/A   Mostly Cloudy